GFSSW_850_rhum_162.txt.gz
RH
48 46 42 35 28 22 19 20 28 31 28 36 70 83 43 40 51 72 90 90 92 86 74 75 69 68 65 59 54 53 63 59 47 44 41 35 38 36 37 40 44 41 36 31 31
48 45 40 34 19 15 17 22 34 74 57 96 90 58 54 71 80 97 86 76 71 77 79 77 69 69 60 48 50 55 63 52 40 41 43 41 41 41 42 42 44 45 43 39 36
49 44 41 33 20 20 24 25 77 100 96 96 58 43 68 80 91 98 75 89 81 79 78 83 71 66 62 52 50 47 62 48 45 41 43 45 47 46 47 50 45 44 44 45 46
45 40 38 29 20 27 29 50 90 87 96 74 47 56 77 91 83 96 74 77 76 83 79 79 74 68 61 58 52 66 53 49 46 45 48 50 45 43 42 42 42 42 41 44 44
42 39 38 24 23 30 39 49 78 62 60 55 56 66 81 84 81 85 82 71 79 73 76 71 65 54 63 51 50 55 49 45 46 46 46 45 43 39 37 37 38 38 37 43 48
43 40 38 26 27 32 38 45 46 52 62 67 60 71 81 67 81 82 76 75 74 69 64 62 56 51 52 48 50 45 49 51 46 43 40 35 33 34 35 34 30 29 33 45 49
44 41 39 30 31 32 35 42 45 53 56 72 77 88 73 80 77 65 62 62 64 63 53 52 55 53 52 53 49 52 60 44 35 20 24 25 36 34 30 26 27 27 28 35 45
45 44 41 34 34 32 35 45 47 51 63 77 81 91 78 74 63 59 57 56 59 56 56 58 58 56 55 53 47 52 47 50 21 21 21 27 50 29 25 22 20 19 19 23 31
44 46 42 38 36 31 34 49 46 58 62 78 79 85 66 60 62 63 59 50 51 55 58 55 57 52 47 55 54 43 53 34 29 22 25 28 46 26 16 14 18 23 26 32 33
45 50 45 41 37 32 34 48 52 58 55 65 67 58 58 49 51 47 58 52 47 46 48 52 50 54 52 49 54 42 44 35 37 24 24 30 31 18 12 20 24 27 51 54 63
47 48 47 43 39 34 32 64 68 66 52 49 46 38 39 44 36 46 44 53 50 46 42 38 44 49 30 27 29 32 37 39 27 18 23 28 22 15 13 24 33 34 41 47 56
48 50 49 45 43 38 33 45 63 61 71 46 45 42 46 40 38 37 44 46 34 35 25 31 49 27 24 25 31 34 34 31 25 19 19 22 21 15 13 27 29 32 34 38 44
52 51 49 48 56 58 47 55 68 82 85 45 38 36 40 44 34 33 38 31 30 30 26 29 23 19 25 27 27 26 32 27 28 23 20 20 20 16 11 21 26 29 30 31 36
55 53 50 48 72 65 74 56 63 74 88 48 34 37 43 43 42 36 35 32 28 33 29 29 23 25 27 28 25 32 22 25 28 32 43 22 41 22 15 14 26 27 26 26 28
60 56 51 49 54 69 57 53 64 87 92 31 32 40 36 37 33 38 36 33 35 30 29 31 25 27 31 28 24 31 27 28 30 32 31 28 38 31 19 16 23 25 23 21 28
66 59 51 55 74 57 55 59 83 96 89 38 33 33 34 33 32 36 38 38 33 33 31 32 25 28 30 25 25 24 30 31 30 32 58 43 37 33 22 17 23 21 21 18 24
69 64 56 53 69 52 52 88 97 94 36 41 40 34 36 35 30 31 28 32 35 50 43 32 28 26 23 28 25 30 42 86 84 82 83 30 31 26 17 25 23 22 19 16 22
74 64 65 58 52 47 74 85 74 52 43 40 39 38 42 35 31 30 33 38 30 31 52 61 51 24 24 29 33 36 43 84 79 80 63 33 41 24 15 19 19 17 16 18 21
73 76 88 63 54 48 78 98 70 44 44 48 38 39 38 38 41 44 37 35 32 33 57 73 48 27 26 25 29 38 55 44 69 60 66 48 30 19 13 14 14 18 17 21 22
78 77 93 62 54 65 95 82 44 44 50 48 53 37 48 45 50 65 55 30 32 31 46 60 81 35 29 30 31 39 32 64 83 97 84 42 42 33 20 20 18 20 20 25 23
80 86 84 65 65 78 98 65 43 44 50 56 52 51 44 50 63 67 70 44 28 36 46 75 73 46 39 45 47 52 62 59 82 86 86 80 41 21 24 22 20 19 26 30 31
87 99 88 76 92 89 93 51 54 46 52 55 61 61 57 47 75 69 60 49 33 34 51 58 88 95 62 39 34 41 66 74 95 78 85 80 64 30 26 22 19 18 27 30 34
94 99 89 63 99 97 84 61 54 52 52 56 58 51 47 55 76 68 61 41 44 46 59 54 86 96 70 55 55 62 50 72 84 84 84 90 61 25 23 24 25 29 24 30 31
94 100 99 78 84 72 85 82 70 56 54 50 54 52 59 64 54 74 58 45 45 46 46 56 92 81 78 67 72 80 83 70 72 86 74 69 55 38 32 36 33 32 28 31 28
98 96 88 98 95 85 88 99 85 88 59 58 71 64 66 84 72 65 50 45 43 43 50 73 96 81 73 63 61 61 71 78 86 81 91 62 58 50 45 41 34 27 30 30 28
92 95 85 94 82 94 94 93 90 91 82 79 76 54 54 80 69 72 61 62 67 57 79 86 89 74 89 59 53 55 47 46 61 63 75 72 73 44 35 38 29 27 34 34 33
100 96 91 97 99 98 90 81 97 72 73 60 54 59 62 55 48 56 61 62 65 75 92 91 94 92 87 57 53 68 44 44 44 44 58 64 54 35 38 36 36 36 38 40 35

GFSSW_850_rhum_168.txt.gz
RH
41 36 33 32 28 26 24 27 54 100 99 97 99 74 56 66 87 93 89 91 86 78 72 68 62 61 62 58 54 54 80 87 68 62 58 50 54 48 47 43 37 35 35 33 34
41 36 33 34 30 27 24 31 47 87 100 100 70 47 64 92 93 97 95 83 74 75 77 69 62 56 61 57 57 62 87 75 56 52 58 51 53 50 47 45 38 34 31 31 32
39 37 36 34 30 26 24 30 40 47 54 52 43 53 88 84 86 96 83 83 80 74 72 67 63 61 59 54 54 60 78 62 59 53 50 53 50 48 49 52 38 39 33 29 26
34 35 35 34 31 27 26 28 36 42 46 42 42 72 93 96 88 90 76 67 68 65 65 65 61 66 66 61 56 64 60 60 57 52 52 55 49 50 48 41 36 32 29 26 24
34 35 35 34 31 28 26 32 38 39 52 40 64 88 79 78 91 87 75 65 68 68 65 72 67 59 66 60 58 61 59 54 51 49 45 47 52 54 48 32 28 27 23 27 28
35 34 34 34 31 28 26 32 35 44 51 58 83 83 72 84 79 78 75 68 67 66 68 60 55 54 53 57 58 57 56 55 47 46 48 51 50 44 26 24 21 20 25 38 39
34 34 33 34 32 29 28 33 39 50 57 77 72 67 69 74 66 59 55 51 60 61 54 53 52 52 55 59 57 54 60 57 51 39 41 35 40 38 22 22 21 22 42 43 42
35 34 34 34 33 30 28 35 40 58 71 75 68 63 70 62 59 60 57 55 49 44 51 49 51 54 56 54 54 59 61 63 36 27 23 24 47 33 18 23 20 30 46 47 38
36 34 33 32 33 31 29 41 42 63 72 74 62 65 65 61 59 40 53 52 48 46 50 53 53 56 56 67 59 60 68 43 39 27 32 27 44 28 17 18 18 26 50 43 33
34 35 34 32 32 32 29 48 48 44 61 58 60 57 61 50 38 42 36 48 47 47 47 50 56 69 72 76 56 42 50 43 47 34 32 40 41 30 20 18 18 33 46 36 28
33 36 34 30 31 34 29 43 52 54 40 47 43 43 42 38 40 38 33 46 48 50 56 52 62 56 56 67 47 35 42 51 47 34 32 35 35 28 21 20 22 41 42 33 26
35 37 34 32 34 38 32 31 39 46 58 41 41 37 32 35 42 40 34 44 50 50 40 47 58 42 39 31 31 34 41 44 39 27 28 32 30 23 22 22 20 40 34 28 28
43 40 36 31 35 37 40 43 51 60 70 44 38 38 37 33 42 38 34 35 35 40 37 41 33 29 30 29 30 33 38 40 38 35 32 31 39 30 23 20 37 34 29 30 29
48 49 41 33 40 45 48 49 53 74 84 50 37 38 38 36 43 37 36 33 30 38 36 37 28 27 28 31 31 40 30 33 38 43 55 34 70 39 28 28 37 33 32 28 27
51 53 44 40 43 46 50 52 56 76 48 39 37 37 36 35 36 39 37 33 36 37 37 36 33 32 37 35 28 38 31 36 37 44 45 47 63 46 33 26 35 32 29 25 21
66 58 46 50 52 47 48 60 77 72 52 44 38 38 40 39 38 37 37 35 36 38 39 42 31 32 36 30 27 29 35 39 52 56 83 54 52 52 36 26 28 21 20 21 22
72 70 57 50 47 46 61 80 77 66 39 46 44 40 42 43 40 42 45 47 41 52 52 43 38 29 25 30 30 38 51 75 65 79 75 49 51 41 27 25 24 21 20 24 25
81 68 66 57 52 50 74 75 54 55 53 45 46 44 50 39 39 39 39 47 41 41 70 72 53 28 26 29 34 37 48 73 58 86 61 43 62 50 22 21 20 20 19 30 30
96 81 68 68 56 54 76 80 71 68 48 52 50 48 46 42 44 48 49 51 41 39 57 77 58 41 30 30 33 41 56 46 62 69 94 72 54 33 27 30 24 28 24 30 32
93 84 76 70 59 70 80 78 53 50 52 54 56 46 50 49 53 66 64 46 39 42 46 59 69 42 44 32 33 37 38 61 87 84 87 71 62 45 31 36 34 34 30 33 33
92 83 83 71 71 77 83 86 51 50 50 55 55 57 52 52 69 74 63 51 38 52 57 69 68 55 48 48 50 56 55 77 77 84 96 97 63 37 37 35 38 36 32 34 36
90 96 89 75 83 96 97 64 51 54 53 58 58 58 63 57 74 76 68 59 37 48 58 60 86 99 78 50 46 44 68 76 90 84 96 93 65 31 33 31 34 36 35 34 40
84 98 99 89 95 99 96 60 55 57 59 65 67 64 58 59 74 77 67 52 41 49 64 64 86 96 68 58 56 70 62 78 89 92 90 93 62 30 35 37 36 38 39 43 43
86 99 99 81 94 84 90 80 75 58 55 58 61 59 63 71 65 75 69 52 48 49 52 52 82 74 79 65 79 72 77 68 80 97 70 67 60 45 41 39 40 45 47 47 45
89 97 92 99 98 94 87 85 81 88 62 60 70 68 74 90 79 80 70 62 56 54 56 78 97 95 80 70 76 76 79 81 92 78 95 64 63 50 45 45 48 49 40 38 38
96 98 96 90 90 89 88 96 87 84 89 85 80 71 74 80 71 81 73 68 74 66 81 91 94 89 93 87 87 90 80 84 86 83 77 70 69 45 44 46 43 43 41 41 39
98 87 78 92 99 94 95 90 88 89 96 79 68 79 83 72 60 58 59 63 65 74 84 91 95 97 91 66 70 78 65 64 64 63 69 74 54 48 55 53 54 50 48 45 41

GFSSW_850_rhum_171.txt.gz
RH
38 36 34 34 31 27 27 38 79 100 100 100 99 75 69 84 90 94 93 92 86 77 70 67 63 56 59 58 56 56 84 88 72 63 62 53 54 47 45 47 35 32 34 30 24
38 37 36 35 31 27 28 33 43 69 92 100 57 56 99 100 97 94 100 86 80 74 78 68 59 56 60 56 58 67 87 78 59 55 61 53 53 50 44 45 35 31 28 25 26
38 38 37 37 32 28 25 24 33 44 50 50 41 66 93 90 86 86 83 83 78 77 71 67 58 57 58 55 58 64 82 64 61 56 54 53 50 48 49 47 33 35 31 32 20
39 36 34 33 30 27 28 32 36 42 47 39 49 84 93 94 89 82 70 66 68 66 67 61 57 64 65 63 59 63 62 62 60 54 54 56 50 50 49 37 31 30 38 21 26
36 32 31 33 31 29 31 33 34 43 48 47 81 94 89 80 90 84 73 67 64 65 61 63 60 59 68 60 59 63 60 55 52 48 47 51 53 52 47 34 29 32 18 32 38
36 34 31 32 31 29 30 34 38 46 51 82 90 82 71 80 78 78 70 66 65 62 66 59 57 55 57 59 60 59 58 57 46 43 44 51 49 47 29 24 25 23 28 43 43
38 36 32 31 31 29 31 37 44 50 75 78 72 76 62 69 62 62 52 49 55 60 56 53 52 54 55 57 58 55 58 55 50 38 30 37 35 48 22 28 23 18 28 47 47
36 37 33 31 30 30 33 39 53 58 69 72 70 66 60 61 60 58 53 51 47 45 48 46 50 54 56 54 56 60 60 51 34 29 25 25 47 29 22 23 19 16 24 45 44
32 36 34 32 30 31 32 42 50 66 73 70 64 48 65 58 55 41 54 49 46 46 52 53 51 56 57 64 52 58 66 45 38 29 32 28 46 32 22 24 21 19 19 46 42
28 32 32 31 31 32 30 48 44 50 67 60 58 48 58 49 37 39 40 51 46 47 47 50 54 70 75 72 47 40 49 44 44 33 35 43 45 32 24 24 22 20 26 44 37
27 30 31 29 31 35 30 50 51 47 42 47 44 45 43 36 39 35 38 48 48 48 52 54 62 49 45 66 48 39 42 50 46 38 34 40 40 31 24 22 24 25 43 43 34
26 30 31 28 28 37 33 34 38 49 46 46 41 35 32 35 44 40 37 43 48 46 42 46 60 45 40 48 48 36 39 44 39 32 30 37 33 28 26 22 20 23 45 36 31
25 28 32 28 30 37 37 40 43 58 55 40 38 38 38 36 42 38 34 36 37 40 38 43 33 31 34 32 32 34 39 42 40 37 34 36 41 36 27 22 35 41 37 33 28
30 31 32 30 38 40 43 44 51 67 77 42 38 37 36 37 43 38 36 34 30 38 38 40 31 30 31 31 32 42 33 35 39 43 54 36 62 44 33 32 39 39 32 29 22
35 51 37 31 40 45 45 47 58 74 54 40 39 38 37 37 37 39 37 34 34 35 36 33 34 32 37 36 31 39 32 37 38 47 46 49 66 51 34 26 31 30 30 22 20
57 67 50 43 42 44 48 58 72 71 50 45 39 41 40 40 39 38 37 36 37 39 41 44 34 32 36 31 29 31 34 42 53 59 80 58 58 52 38 28 28 24 24 21 23
91 82 60 46 41 46 58 73 78 69 40 48 46 43 43 45 43 43 46 45 42 49 51 45 38 31 27 32 31 37 47 70 65 75 70 48 55 46 27 27 24 20 20 20 28
100 94 78 59 48 50 66 71 58 48 54 47 46 45 51 42 40 39 41 47 42 42 74 70 54 30 27 30 34 42 45 70 53 75 58 49 59 42 33 22 21 24 25 24 31
99 97 86 69 55 52 67 80 66 59 49 54 51 48 49 44 45 50 49 52 44 45 57 77 55 41 35 32 33 44 60 45 56 66 94 72 60 37 36 28 25 30 32 33 32
100 100 87 78 60 70 80 71 56 50 54 51 60 46 53 49 52 65 62 49 41 44 47 58 68 43 44 34 38 37 43 64 86 76 79 66 68 42 32 33 36 39 38 33 33
100 95 83 85 72 76 85 76 59 52 49 55 58 57 53 54 68 68 63 51 40 55 58 68 64 54 48 48 52 57 57 82 75 82 88 97 68 41 35 34 37 42 36 36 37
96 98 94 78 87 91 95 76 49 57 54 59 56 56 61 61 77 79 69 61 40 50 55 59 83 92 74 51 53 47 71 78 89 82 99 91 68 33 34 33 37 34 37 38 42
88 92 98 88 98 99 97 62 56 61 62 66 67 61 58 63 74 76 67 53 44 51 66 72 86 93 68 60 56 75 68 78 89 91 83 93 63 37 36 35 35 36 40 44 38
88 99 100 98 98 86 93 80 75 58 64 63 65 62 65 69 64 74 71 56 48 48 54 53 81 73 80 66 77 71 86 72 77 88 70 71 60 45 41 42 41 43 45 40 39
83 98 92 99 99 98 87 84 85 84 62 59 69 70 74 90 78 80 74 64 58 54 60 74 100 91 73 64 73 72 74 77 79 67 83 62 60 49 48 49 46 46 42 44 44
91 99 100 96 91 94 88 96 84 87 80 80 76 70 74 80 72 83 75 68 67 68 84 89 95 94 95 84 85 91 80 82 84 76 76 73 77 55 52 48 48 47 48 47 43
93 89 84 95 99 95 94 88 85 84 87 72 69 75 81 68 58 55 52 54 64 74 82 89 94 97 92 75 74 82 64 65 70 76 80 93 69 54 57 52 48 49 51 52 48

GFSSW_850_rhum_177.txt.gz
RH
28 27 27 28 28 26 25 26 30 45 97 98 98 76 78 100 90 92 98 98 97 82 72 68 63 63 64 59 58 58 70 77 75 72 64 56 48 51 44 46 35 33 31 33 18
30 28 27 28 28 27 30 36 41 46 50 57 62 96 98 97 88 80 99 91 84 74 76 67 57 63 60 60 59 65 74 71 60 58 62 54 51 46 46 42 37 31 32 22 16
29 30 28 28 29 28 30 34 35 43 46 44 55 99 98 92 81 87 95 74 74 74 72 67 56 58 59 59 62 70 71 67 62 59 56 54 54 49 48 41 30 33 28 18 21
29 32 30 29 30 29 32 35 43 54 48 44 66 100 99 89 86 79 70 66 65 63 66 60 56 57 67 68 62 66 68 64 63 59 55 54 50 50 49 33 31 34 26 18 32
26 30 32 30 31 31 33 38 42 47 45 60 80 97 88 83 86 79 74 70 64 58 60 58 56 61 69 65 62 66 64 59 56 54 50 52 54 48 48 34 36 31 22 18 39
25 28 33 32 30 30 31 38 45 52 72 84 92 93 77 74 84 78 60 58 59 57 51 55 54 56 61 64 59 60 59 58 50 47 42 50 46 49 32 31 29 22 18 18 35
25 28 33 34 28 29 30 38 50 70 87 92 90 85 72 66 74 60 49 39 49 55 48 49 55 51 54 65 59 57 53 50 53 35 32 37 27 41 30 30 27 22 21 20 36
25 27 32 35 26 27 30 41 53 71 76 75 74 66 53 63 57 53 52 43 44 43 40 46 52 50 54 56 50 58 49 43 36 29 31 24 31 24 26 27 23 21 22 22 27
28 26 30 31 30 27 31 42 55 67 74 70 67 60 51 54 47 43 48 44 45 48 48 50 48 57 53 50 44 39 40 35 31 29 29 29 35 27 25 27 26 21 22 23 22
36 29 28 31 32 29 32 43 59 69 75 69 59 44 54 51 37 39 47 47 45 46 47 47 50 62 68 48 33 33 39 38 40 30 35 38 40 31 29 28 26 23 22 24 26
40 35 30 32 34 30 33 48 51 45 65 55 47 49 49 38 42 36 43 46 47 44 47 51 44 38 42 56 38 41 40 43 39 35 39 41 38 31 28 30 28 22 23 33 53
41 46 38 31 39 34 35 46 42 44 45 45 43 40 37 39 43 37 42 45 40 41 43 36 39 42 43 58 52 38 40 39 37 34 33 38 33 29 27 25 31 30 34 51 39
55 53 54 42 45 38 36 38 42 45 44 46 40 36 33 38 42 41 37 37 36 40 40 37 34 36 35 44 39 36 41 39 38 38 35 36 28 29 27 34 42 35 46 43 32
99 95 56 65 41 46 39 40 42 55 74 45 44 38 39 39 43 39 36 33 32 37 42 41 34 34 40 37 36 39 35 36 38 39 41 33 36 31 31 36 42 41 40 33 26
100 100 88 69 58 49 41 45 47 64 50 40 42 42 41 38 40 41 37 34 34 39 32 34 34 34 36 34 33 37 35 38 40 43 47 44 47 33 36 28 36 40 34 28 21
98 100 100 81 68 54 46 52 62 73 55 51 44 45 43 42 42 41 39 36 38 41 42 40 38 36 35 34 32 31 35 40 48 51 57 47 49 30 34 27 30 33 32 25 28
98 98 99 97 69 52 56 65 77 72 41 53 52 49 46 52 49 45 48 49 47 52 46 42 40 34 32 35 32 34 39 63 63 64 59 48 54 34 30 27 26 28 24 31 32
91 92 98 100 86 54 69 70 66 42 55 48 50 51 56 51 48 49 48 51 44 45 69 60 51 33 30 34 38 44 40 67 52 56 46 50 50 32 34 26 24 26 29 32 34
98 91 100 97 98 60 76 86 62 49 51 60 51 59 61 48 51 47 52 52 51 49 56 72 50 41 39 36 33 46 49 44 63 68 68 55 47 35 36 28 28 31 33 35 37
99 98 98 95 99 70 88 77 56 48 57 54 60 56 70 63 56 66 64 51 51 46 49 56 64 46 42 38 42 38 45 57 80 62 60 48 53 35 43 32 30 33 37 38 41
100 99 97 95 96 84 96 82 61 50 50 58 64 60 58 61 68 70 64 53 45 58 56 65 62 54 47 50 54 54 57 70 71 71 64 68 44 39 36 35 32 36 38 43 46
100 100 99 100 97 98 96 76 55 62 56 56 55 56 60 65 73 74 65 61 44 52 51 58 77 77 60 59 54 51 71 72 76 69 91 78 64 39 34 37 40 42 43 46 42
100 99 100 99 98 95 88 93 63 65 64 66 61 56 56 67 66 72 66 54 48 54 65 68 80 83 68 61 59 72 69 78 82 80 90 74 51 38 38 41 40 42 40 44 43
100 100 100 100 97 91 95 89 73 60 66 64 69 62 63 66 66 78 72 60 53 49 57 51 80 72 71 64 79 74 88 74 75 88 76 65 51 42 40 40 40 42 48 49 37
100 99 88 98 97 94 95 83 80 80 65 66 74 69 68 89 79 74 70 66 60 56 70 69 82 84 73 61 68 69 73 86 86 66 74 49 57 46 44 46 47 51 51 44 36
97 100 97 92 86 97 94 93 82 79 79 78 77 73 72 82 70 84 78 74 74 77 86 91 92 91 90 76 84 88 78 76 76 68 68 62 67 46 47 51 54 48 47 44 37
100 97 74 96 99 98 91 78 80 76 72 66 67 78 77 68 56 60 56 60 66 82 90 91 95 97 93 78 72 78 67 64 79 78 77 87 62 54 57 56 50 46 41 38 37

GFSSW_850_rhum_180.txt.gz
RH
34 32 27 24 25 24 23 29 34 40 58 95 95 77 79 82 86 92 95 99 98 77 72 68 63 65 65 63 62 59 41 40 44 50 46 46 42 46 44 36 32 32 28 35 17
34 34 30 25 24 23 23 29 32 38 44 48 76 96 98 89 92 90 93 88 78 70 74 67 58 63 58 59 58 46 46 41 44 43 45 44 40 38 35 30 28 28 33 29 36
30 33 33 28 25 24 23 31 32 43 42 41 77 97 94 86 78 88 78 73 73 74 74 66 58 59 56 58 55 54 46 49 48 48 47 44 41 38 32 31 24 22 25 27 40
27 30 32 30 26 26 28 34 35 42 37 40 82 98 97 85 62 77 67 66 64 63 66 62 58 53 52 55 55 52 52 50 52 57 48 42 39 36 34 25 23 27 31 24 38
26 28 30 32 27 27 29 37 44 46 50 60 84 98 89 78 80 76 73 70 63 54 61 58 54 52 50 51 52 52 50 52 53 53 47 47 38 32 35 34 38 39 23 29 40
27 26 28 30 31 26 30 40 50 61 69 78 92 96 81 60 81 76 58 56 54 53 53 56 52 54 51 50 48 51 51 46 45 40 36 37 30 41 26 31 39 29 22 36 41
27 26 26 28 31 27 31 38 52 70 85 92 92 90 72 64 75 58 45 36 49 48 50 51 54 46 49 48 54 46 36 35 36 31 24 32 24 28 25 32 28 21 20 31 45
34 27 26 26 28 29 30 34 53 70 75 75 76 71 54 65 63 55 47 40 44 38 37 42 51 50 45 49 40 38 35 32 34 25 26 22 24 17 26 27 22 20 18 21 39
92 39 27 25 27 31 28 35 52 68 75 74 70 67 47 55 53 49 48 48 48 46 50 49 48 47 44 34 34 28 27 24 23 23 24 23 23 16 23 22 21 18 16 19 20
88 93 34 27 26 32 30 38 55 69 77 73 63 56 55 52 40 48 46 43 48 48 45 45 44 38 36 32 29 23 26 25 23 23 24 24 25 17 17 21 19 18 17 19 21
90 97 88 39 27 30 33 45 59 53 66 56 48 47 52 44 39 39 43 49 48 40 30 40 28 25 30 35 26 27 27 30 24 25 29 25 24 20 18 19 20 19 17 21 29
97 98 98 76 43 32 35 46 47 41 40 58 46 45 42 39 43 40 44 44 36 26 31 28 24 30 34 41 35 30 29 25 25 26 26 24 24 19 19 21 23 19 23 34 38
99 98 100 96 73 39 38 39 39 42 42 45 45 39 39 38 36 36 43 37 27 28 26 22 29 32 29 36 32 28 31 28 27 26 25 26 22 22 21 28 34 28 34 38 33
99 98 99 99 61 53 40 36 42 48 61 40 40 38 37 42 39 41 37 31 28 25 29 27 28 29 30 29 28 30 27 29 31 30 30 26 28 20 20 28 30 36 35 33 29
96 97 99 100 78 63 44 39 45 62 72 37 39 43 44 38 39 40 37 34 28 28 28 30 29 30 30 27 26 31 30 31 32 30 30 27 31 20 23 22 29 30 32 29 25
94 95 97 99 86 65 50 49 58 72 71 43 40 40 38 37 39 41 38 36 36 32 33 30 34 29 27 30 28 30 29 30 31 29 48 32 31 17 22 18 21 29 29 24 26
100 98 95 96 85 59 54 69 95 86 35 45 43 39 34 40 40 37 39 40 36 49 39 36 33 31 30 31 29 29 28 53 60 61 58 34 36 20 21 19 18 26 24 26 28
98 100 92 92 98 71 65 68 88 34 34 40 42 41 40 42 41 41 43 42 38 34 42 40 41 31 27 30 30 29 30 47 53 45 32 33 31 21 24 22 22 22 22 28 29
96 100 100 93 96 68 76 98 60 25 34 46 42 43 45 46 43 43 41 37 36 35 52 58 40 35 34 29 29 35 38 32 46 43 43 29 24 22 24 21 20 21 25 27 33
97 100 99 91 97 71 91 67 40 34 46 43 38 38 50 49 50 52 43 36 39 37 42 43 62 38 39 33 33 32 32 48 65 64 51 25 26 20 28 26 21 23 26 27 31
99 100 98 100 99 83 96 64 44 47 45 46 40 49 48 54 56 52 62 45 37 43 42 50 54 45 39 40 38 44 40 48 56 59 46 38 21 20 21 21 21 20 23 28 32
100 100 100 100 99 95 88 62 52 51 56 51 48 45 44 46 55 57 51 46 37 38 39 44 86 53 46 48 45 40 62 59 56 73 67 53 35 26 24 22 22 20 24 31 38
99 99 100 100 99 99 81 70 67 60 54 56 51 44 45 46 80 58 51 49 47 40 47 49 68 73 61 54 49 57 47 66 68 56 65 51 32 28 26 27 28 28 29 29 37
100 99 99 99 100 80 84 84 66 61 56 56 55 50 53 54 54 67 57 55 48 42 51 45 62 71 46 73 71 76 75 50 54 60 44 44 32 27 28 28 27 29 33 36 40
100 99 91 97 97 83 88 95 68 71 63 61 67 53 56 79 59 59 55 59 53 55 54 68 75 66 57 47 59 60 70 79 81 53 57 34 34 29 29 30 32 34 36 41 38
100 99 100 98 76 97 92 94 70 63 74 68 72 56 56 78 52 62 65 61 59 65 82 84 81 72 70 60 58 66 57 61 67 56 50 48 49 33 32 34 38 37 37 40 37
92 96 91 98 99 98 93 74 74 63 67 59 58 62 62 55 52 51 51 50 53 78 84 84 84 82 71 60 57 63 48 46 55 56 61 67 46 35 36 39 40 41 40 38 37

GFSSW_850_rhum_183.txt.gz
RH
35 37 35 29 25 25 25 29 32 36 42 58 82 74 67 81 79 90 88 94 94 80 71 68 59 59 61 56 56 50 41 33 32 32 29 37 35 38 36 32 30 28 25 30 31
30 34 36 33 27 25 23 28 32 34 44 48 72 76 85 81 89 78 91 88 76 68 74 59 50 55 52 52 50 43 39 33 35 32 37 37 35 35 34 32 28 27 31 27 32
31 30 33 35 32 28 24 25 31 40 38 37 70 86 88 86 69 68 81 72 72 74 66 60 53 53 47 49 47 42 46 38 38 38 37 37 37 34 32 31 26 25 26 26 30
80 32 30 30 34 30 28 26 33 37 38 37 77 90 90 92 58 77 66 64 62 66 64 58 51 50 46 50 46 48 42 40 40 49 43 38 35 33 32 26 24 21 22 22 28
31 50 33 30 32 33 30 30 38 44 46 47 82 93 89 69 62 72 68 67 62 54 56 53 48 43 45 39 44 47 37 43 44 48 44 40 36 31 26 27 22 26 23 18 25
35 28 38 35 33 33 31 31 42 55 61 64 77 88 91 54 69 67 65 56 53 47 49 52 45 44 39 40 42 40 42 39 40 39 35 33 27 29 22 25 28 27 18 22 26
34 32 28 35 36 35 33 32 43 64 82 85 89 92 71 58 69 59 40 46 52 46 42 48 47 46 36 37 42 36 35 33 32 29 21 27 27 27 20 23 27 27 17 25 30
39 32 30 29 32 35 34 31 41 67 78 80 81 85 52 57 66 55 47 44 45 44 44 48 46 38 34 38 32 30 27 29 24 24 21 23 30 16 18 22 23 22 16 18 24
46 36 32 32 29 30 36 32 44 63 76 74 72 67 46 57 52 49 47 40 44 45 46 46 41 32 34 28 27 26 27 22 30 24 22 23 25 15 19 20 19 17 15 14 15
40 48 36 34 38 28 34 36 55 67 74 76 67 58 56 44 50 47 48 43 40 42 40 40 37 33 28 27 34 24 23 19 18 20 21 21 21 15 17 17 16 16 16 14 15
53 45 45 44 53 35 32 59 64 57 63 46 42 42 44 46 40 41 44 41 40 36 30 31 28 29 26 26 24 21 22 23 17 20 24 22 20 16 14 14 15 15 14 14 15
83 64 45 74 43 66 38 54 51 49 32 47 51 45 45 39 35 34 41 38 34 29 24 25 25 22 24 27 25 24 25 21 19 20 23 20 20 16 15 16 17 16 15 15 22
95 89 57 57 78 54 45 52 38 39 41 34 45 43 42 38 28 29 38 33 27 24 22 21 25 25 27 29 27 23 26 24 23 21 20 23 23 21 18 19 25 18 17 25 28
92 95 87 57 69 72 62 38 37 45 55 37 39 35 38 33 31 31 33 28 25 23 21 21 23 27 26 25 23 26 23 24 26 28 28 21 28 20 18 23 23 24 26 26 26
93 100 99 80 76 85 59 43 44 61 76 31 34 39 31 30 36 37 34 30 26 24 24 28 26 27 27 24 23 30 26 27 28 27 25 23 27 19 16 23 25 25 26 26 25
97 100 100 98 77 86 66 49 61 76 69 38 34 36 34 31 34 37 34 33 29 26 26 27 27 23 23 26 24 26 26 26 26 24 47 29 24 23 20 16 20 23 26 25 22
96 99 100 99 89 76 68 69 93 97 30 39 39 34 29 30 35 34 37 37 33 49 40 33 29 27 26 29 28 28 29 58 68 71 66 24 28 18 16 15 14 21 23 22 23
91 93 91 98 88 82 61 74 98 31 23 30 33 33 35 29 33 36 37 39 31 30 36 38 41 30 26 28 29 28 30 55 60 44 33 24 28 20 17 15 15 19 22 21 24
93 99 100 99 98 88 76 99 49 30 22 36 35 37 36 36 40 38 38 34 32 33 46 54 38 30 26 25 25 30 36 32 41 31 36 24 20 19 19 19 17 20 20 20 24
99 100 98 98 100 99 93 76 40 24 30 33 34 31 40 42 46 49 39 29 33 32 37 38 58 31 33 28 28 29 25 45 66 69 53 24 22 18 22 21 18 18 18 21 23
99 100 99 94 100 100 98 68 41 32 37 38 32 33 34 43 48 52 53 36 29 34 34 40 55 41 36 37 34 38 35 39 60 57 48 37 21 17 17 18 18 17 18 20 22
100 100 100 100 99 99 97 56 35 38 41 44 46 32 33 41 49 53 48 41 31 34 38 43 88 48 39 39 36 33 57 61 55 80 61 53 37 20 20 19 18 17 18 19 22
96 98 100 100 99 99 74 68 45 46 44 48 46 38 34 39 84 50 43 40 36 34 38 39 66 77 57 50 43 47 42 71 68 50 55 44 33 22 21 21 21 21 21 23 26
100 100 99 100 100 82 81 76 75 54 46 44 46 43 44 44 46 56 50 46 40 34 44 39 55 73 56 91 78 78 74 45 51 56 39 42 32 24 23 24 23 24 26 27 29
100 100 78 94 96 100 88 100 82 79 54 49 60 49 53 78 52 55 47 53 44 46 42 66 80 55 51 42 58 66 78 71 66 52 52 32 29 24 23 25 25 26 27 28 30
100 98 99 98 69 98 98 96 71 64 73 62 60 48 45 79 50 53 56 55 56 50 76 90 83 59 62 49 48 53 48 63 64 50 44 40 41 28 27 26 27 26 28 30 31
100 100 93 97 93 99 94 76 74 57 69 48 50 51 54 52 42 41 43 45 45 80 92 88 80 77 64 51 50 60 45 44 48 51 57 63 44 31 31 28 31 33 34 33 32

GFSSW_850_rhum_186.txt.gz
RH
29 29 35 42 34 26 24 27 31 32 40 46 52 57 64 76 81 82 93 97 86 75 70 73 61 56 59 56 53 51 60 56 43 35 32 34 34 35 36 32 29 27 28 29 31
27 28 30 33 40 34 25 25 35 38 43 40 53 69 73 82 86 80 77 75 73 67 66 64 51 54 56 52 54 53 57 42 38 38 40 37 35 36 35 33 29 30 28 31 33
33 27 26 30 30 39 33 26 32 38 36 34 50 65 75 82 83 80 76 65 65 66 65 59 52 50 51 46 50 47 57 42 37 42 37 36 37 33 34 39 29 28 27 30 31
47 35 28 25 29 31 34 32 33 38 38 34 62 83 78 78 64 71 67 59 58 62 63 56 51 50 50 54 46 54 41 40 39 47 41 38 36 34 34 29 23 26 26 28 29
56 49 33 29 25 28 31 31 37 46 45 39 70 79 77 78 62 69 59 59 55 53 56 53 49 45 49 41 43 51 45 39 40 47 45 39 39 36 31 31 21 23 21 24 26
43 43 39 30 28 25 26 31 31 56 60 50 60 78 89 66 66 63 58 56 50 48 45 52 46 42 42 39 44 40 39 39 38 41 40 36 35 32 28 27 23 27 20 18 25
54 51 41 32 31 28 26 29 29 52 74 66 70 82 94 68 63 56 38 41 47 42 40 47 45 45 37 37 39 36 40 41 37 34 31 26 33 29 25 25 27 28 18 20 26
93 58 50 39 30 30 27 29 29 48 74 80 81 87 76 57 61 56 42 43 42 41 40 45 42 38 34 37 34 35 33 37 28 30 26 26 48 22 22 21 26 28 18 24 29
94 94 64 45 35 31 29 30 31 49 69 76 70 72 58 57 56 48 42 37 41 41 42 41 38 31 34 35 36 32 43 32 36 26 26 28 37 19 18 21 22 25 19 18 20
93 91 82 73 39 33 31 31 42 49 73 77 76 61 56 49 47 45 46 39 38 40 40 39 38 38 36 38 55 34 33 22 26 31 28 30 33 23 18 20 20 21 18 15 15
92 92 89 90 70 41 32 37 68 75 72 58 49 47 47 44 46 43 44 39 38 36 38 35 37 45 40 32 27 25 25 27 21 21 25 29 25 21 18 18 18 16 16 16 14
97 94 96 94 91 59 40 37 56 57 49 49 40 47 41 39 36 34 39 36 36 39 32 34 36 25 26 27 25 25 28 27 22 22 25 27 25 21 19 19 17 16 15 14 15
93 97 98 99 97 71 52 49 54 49 53 29 38 44 42 40 32 31 37 35 34 35 29 30 29 24 28 31 30 28 29 28 26 24 24 27 32 27 20 18 21 20 16 16 17
86 99 100 100 95 76 54 50 44 46 81 41 39 39 40 38 34 27 29 28 26 28 25 24 26 26 27 27 25 33 24 24 26 32 44 23 56 26 24 24 27 24 19 26 29
84 95 99 97 96 83 60 43 41 59 97 38 36 34 36 31 34 32 31 30 30 25 24 31 31 32 30 25 23 34 27 27 30 34 33 28 41 26 24 32 30 26 26 26 26
97 95 99 100 100 96 79 56 54 92 96 41 37 36 37 31 34 35 33 33 29 25 26 29 26 23 25 25 25 27 27 30 29 33 68 39 30 34 26 26 31 29 27 27 25
98 99 99 98 96 95 94 61 98 98 32 43 44 35 35 34 36 37 37 39 40 52 46 35 31 28 26 33 29 30 34 82 89 88 88 27 31 31 19 17 26 30 27 26 23
83 100 98 98 100 93 91 94 98 47 40 31 33 37 39 31 34 39 42 46 36 35 52 60 55 34 28 30 34 36 39 86 75 78 51 23 39 27 19 16 21 23 25 24 23
81 97 100 99 100 99 97 98 87 50 28 36 35 44 41 33 39 40 42 43 39 36 58 70 46 29 28 26 29 33 46 37 50 33 58 46 26 22 20 19 18 23 23 21 22
90 100 99 99 99 100 98 78 73 36 29 33 46 38 49 37 54 53 46 34 36 34 40 47 65 34 32 28 27 32 29 65 88 78 76 41 27 34 28 26 21 24 24 21 22
98 95 89 97 100 100 97 89 61 40 32 38 39 39 41 48 54 59 62 36 33 37 47 44 64 45 36 42 44 44 43 52 73 81 82 68 37 20 26 24 24 23 19 19 21
99 98 88 98 100 100 97 78 55 43 40 46 48 52 35 45 57 64 63 44 31 37 51 57 89 71 47 40 37 37 61 69 88 86 85 83 62 23 23 23 21 19 17 18 20
92 91 100 100 97 98 81 67 56 51 51 53 56 44 36 47 75 61 54 43 34 41 51 55 87 88 61 55 43 49 50 88 75 73 78 81 59 25 24 24 21 20 21 21 21
93 99 99 100 100 85 84 79 87 63 54 47 52 44 43 44 51 62 64 44 37 38 43 52 68 82 82 85 82 83 79 66 66 84 60 64 41 32 28 28 25 23 24 25 26
98 100 88 98 98 100 94 100 97 76 60 54 69 56 59 71 58 59 58 52 44 51 40 68 81 68 56 58 73 84 85 71 73 56 65 40 40 32 31 31 28 26 26 27 28
98 93 100 100 74 98 99 98 86 73 74 79 77 55 52 74 58 62 68 64 67 56 74 96 90 59 64 48 49 56 68 72 61 56 52 49 50 34 30 27 28 30 30 29 31
90 91 100 98 98 99 92 91 96 64 86 62 70 76 62 58 43 43 47 50 55 77 92 85 86 87 78 54 52 74 55 59 68 59 55 68 46 38 36 35 32 34 36 36 35

GFSSW_850_rhum_192.txt.gz
RH
53 40 38 32 29 28 29 28 26 23 30 31 37 66 93 94 93 87 78 79 80 78 71 72 57 60 61 60 57 55 79 82 59 50 45 37 39 36 34 30 29 31 31 30 37
47 40 38 38 32 29 27 28 30 25 27 35 36 70 92 97 95 88 82 75 78 81 64 69 58 60 62 60 56 66 86 73 46 44 46 40 39 38 34 32 31 30 31 32 36
48 46 39 37 38 32 29 27 27 29 30 37 37 70 86 94 88 75 72 77 60 63 64 66 60 60 62 60 58 63 77 54 49 43 42 41 39 37 41 40 31 30 31 35 36
53 47 47 40 38 36 32 29 28 29 32 43 40 71 83 87 78 68 74 65 59 67 68 62 58 57 63 66 57 62 56 51 48 42 41 41 39 37 37 31 30 29 28 35 36
72 55 50 45 41 40 34 31 29 29 33 48 52 66 80 93 86 69 62 55 58 64 60 58 56 55 65 61 55 63 54 46 45 44 44 42 41 40 37 33 30 30 32 36 38
85 80 66 52 41 40 39 34 31 29 33 61 57 73 81 89 61 66 65 59 53 54 59 56 54 51 51 46 61 47 48 46 49 46 43 46 43 42 37 32 30 31 32 35 36
87 89 84 73 57 41 40 38 34 30 33 67 71 79 87 65 61 62 60 60 50 48 51 53 52 47 43 44 42 38 46 34 46 49 43 41 42 42 35 28 29 30 32 34 30
77 90 89 86 72 61 45 42 38 32 34 68 86 94 87 57 63 66 55 39 49 44 42 48 49 44 36 36 36 43 40 46 33 48 31 32 43 24 31 27 28 29 30 30 26
76 86 90 90 84 75 64 53 39 36 42 77 82 83 79 65 69 66 54 33 42 43 40 42 47 37 37 45 47 43 50 46 36 44 34 32 35 26 27 31 26 22 20 28 25
75 81 94 93 91 87 78 69 51 45 59 88 87 89 70 60 63 62 42 41 41 39 39 41 38 50 49 53 51 51 49 40 43 45 33 35 36 29 27 33 31 28 20 23 30
86 85 86 100 98 93 84 79 61 70 82 54 60 56 52 55 55 57 45 41 42 42 52 44 58 59 53 46 35 36 36 29 29 32 36 41 37 34 26 27 35 33 26 23 29
72 86 89 93 98 87 89 85 65 56 62 53 54 64 52 53 46 47 44 41 43 56 47 51 61 48 42 42 40 28 31 30 28 25 34 31 36 34 33 29 26 30 32 22 29
76 62 81 96 89 100 80 82 79 68 68 51 38 51 52 52 45 44 43 40 48 55 55 59 42 39 39 46 42 33 36 32 31 27 27 30 38 33 28 28 22 23 23 28 24
90 72 63 88 88 91 98 61 77 68 77 55 55 40 44 53 48 40 40 36 46 56 52 50 33 38 38 37 34 39 28 29 33 34 42 30 48 35 26 30 29 25 23 26 24
72 92 67 74 81 92 75 70 54 71 96 41 46 39 45 45 40 40 35 38 46 43 43 47 40 37 36 33 30 34 30 32 33 41 39 37 49 40 28 33 34 33 24 20 20
78 87 90 66 84 86 88 66 76 96 93 53 40 45 50 41 38 40 43 36 30 32 32 34 28 30 31 34 30 33 36 47 51 50 68 44 44 40 36 32 35 30 30 24 31
74 78 100 86 84 86 91 83 98 97 48 58 53 50 53 51 45 42 44 46 47 53 49 36 33 30 31 38 33 37 49 83 78 79 71 44 40 39 27 27 32 36 37 36 36
77 74 94 98 80 97 100 100 97 69 64 42 47 48 61 48 48 47 49 52 46 48 66 70 59 38 32 35 41 43 51 77 62 96 79 28 49 34 22 24 27 29 33 35 34
83 82 92 85 82 92 100 97 84 79 62 75 46 56 57 48 54 51 55 48 45 50 58 71 51 35 33 29 34 41 52 46 66 58 70 50 37 29 22 37 41 39 33 31 30
98 97 95 96 75 92 98 92 83 58 70 78 88 56 68 50 60 60 61 45 44 46 52 57 65 37 33 30 30 36 40 56 83 73 74 62 48 39 29 39 44 44 35 27 25
100 100 70 70 88 99 98 97 71 59 53 77 92 100 63 58 57 62 66 45 38 43 50 54 63 50 36 43 48 46 46 70 73 87 78 73 51 35 30 32 43 41 33 27 26
100 99 83 93 99 99 94 100 66 62 53 64 70 78 91 59 59 67 62 53 39 50 54 57 78 81 54 43 39 41 61 79 79 71 93 87 52 32 29 29 33 36 31 28 26
99 96 95 98 98 93 98 98 97 66 67 68 78 61 72 97 86 56 63 48 47 52 61 66 79 88 68 59 56 51 63 79 84 86 87 67 47 32 28 30 24 27 28 26 25
100 99 100 99 98 84 81 92 92 70 75 81 72 62 78 95 74 78 56 47 44 52 57 56 72 71 71 66 78 71 86 70 68 87 75 65 44 33 31 30 29 23 22 24 23
98 99 98 98 99 100 97 99 96 99 86 79 94 77 93 98 100 82 58 53 52 57 64 61 80 76 65 77 63 73 78 80 60 65 60 47 52 36 34 33 29 20 21 24 24
99 99 100 100 89 96 91 100 94 85 97 98 96 88 88 99 94 99 76 63 57 60 83 89 85 66 66 69 56 62 66 76 62 56 57 54 56 44 30 27 29 25 26 28 30
99 100 99 98 100 98 94 89 93 80 82 69 92 93 92 78 68 81 71 70 66 70 89 77 85 84 87 63 59 70 65 66 61 62 53 60 43 44 41 40 34 30 29 29 30

GFSSW_850_rhum_195.txt.gz
RH
46 42 42 37 38 33 29 26 27 28 26 38 36 44 73 97 96 95 80 72 80 83 83 76 61 61 62 61 60 59 80 87 65 61 48 39 40 37 34 34 33 33 32 34 40
40 40 42 40 39 39 33 29 27 29 28 37 38 63 84 94 98 93 67 82 79 79 70 76 64 62 62 62 60 68 89 78 52 46 47 42 40 36 32 31 31 32 32 36 35
62 45 38 39 39 40 39 33 29 28 31 40 42 60 89 87 76 63 67 80 79 82 70 75 66 62 64 64 62 68 81 60 48 44 44 42 40 39 37 37 32 33 36 34 33
79 76 66 43 38 41 42 37 32 29 30 41 46 63 83 88 55 71 72 82 67 68 70 72 64 62 71 74 62 65 61 50 48 45 41 43 40 39 36 37 32 30 31 34 33
86 80 80 74 55 42 43 40 36 31 30 40 53 61 86 89 62 58 68 66 68 71 70 65 60 61 70 66 63 66 56 52 50 44 43 42 42 42 39 29 29 32 35 34 34
84 85 84 84 77 58 43 42 38 34 32 38 60 74 84 93 51 64 66 55 56 66 64 62 58 55 57 56 64 58 57 51 50 48 46 47 46 43 39 37 30 33 35 34 34
76 77 80 84 87 84 64 52 44 40 34 42 72 84 88 52 52 63 63 64 58 51 57 58 55 52 49 48 46 43 52 38 55 52 46 43 49 48 40 37 31 32 36 35 35
79 76 78 81 85 85 83 68 58 47 37 45 90 94 82 50 58 64 58 55 58 51 50 50 52 46 42 41 38 46 47 66 44 57 39 35 50 26 32 34 33 34 36 40 40
89 81 80 80 96 88 86 81 76 67 41 55 94 95 79 58 61 62 63 50 46 50 44 47 48 40 39 46 48 46 63 59 36 54 35 39 41 24 30 32 34 35 36 37 37
77 77 86 86 93 99 96 89 80 68 59 84 96 96 63 58 60 65 66 42 43 44 42 43 42 50 54 55 74 54 52 47 40 55 36 37 42 33 31 34 32 32 34 34 32
92 74 61 82 91 92 96 94 84 77 89 68 79 60 48 52 58 66 65 43 43 42 51 45 57 68 57 49 35 43 42 40 36 40 40 44 41 36 30 39 38 31 28 30 28
96 93 70 56 76 90 97 96 77 69 68 61 62 75 54 56 55 59 55 44 48 58 52 56 65 48 43 44 37 34 36 34 29 31 45 41 44 40 36 34 38 34 28 23 29
71 81 89 78 56 79 97 95 82 88 74 62 49 57 60 58 48 52 50 43 50 61 60 59 40 39 44 50 46 40 41 36 30 28 30 31 39 35 31 33 28 32 29 26 25
72 61 67 96 82 63 76 74 84 84 92 64 56 50 54 57 54 46 48 41 49 61 57 58 41 47 48 51 42 47 33 32 35 36 44 33 49 34 31 31 34 31 32 32 25
77 88 80 84 92 79 90 72 74 82 100 43 50 38 46 53 47 47 45 40 54 55 53 56 43 45 44 39 37 40 33 36 36 43 36 39 49 39 30 34 36 37 29 28 31
70 76 99 96 99 71 76 98 86 98 93 51 50 56 63 51 40 48 46 37 36 41 36 46 31 35 36 37 30 37 42 50 54 50 68 45 44 39 37 32 32 33 28 25 25
72 77 90 100 97 95 77 99 99 96 47 56 57 58 62 57 46 48 55 48 49 56 53 36 35 31 32 39 32 36 45 81 69 77 70 47 46 39 29 28 30 35 30 24 23
74 82 86 96 89 97 97 99 97 75 65 51 50 60 71 56 49 48 60 60 48 49 64 64 63 40 34 37 42 44 47 74 53 84 67 44 52 41 27 24 24 28 27 28 30
96 98 97 88 84 97 100 96 83 79 53 61 51 69 72 57 69 52 57 60 48 52 57 73 52 36 33 35 33 42 54 47 70 61 71 55 40 31 26 38 44 43 38 40 37
95 97 93 80 87 100 99 96 92 61 70 65 65 60 87 76 79 95 66 47 48 44 51 54 64 39 34 31 33 38 43 56 83 65 63 54 53 38 29 38 48 49 43 40 36
94 98 90 80 96 100 97 95 95 64 71 80 83 92 80 79 87 96 84 53 38 46 46 52 63 50 39 45 50 48 49 70 71 85 70 72 51 41 32 36 47 45 38 36 35
100 97 89 94 99 100 96 100 82 70 61 79 83 84 87 93 98 98 96 60 38 40 52 53 76 78 53 46 40 42 63 72 75 65 96 86 48 32 28 32 41 43 35 31 31
96 91 79 100 96 97 94 74 89 89 69 73 79 74 72 87 97 92 70 51 48 48 52 59 77 87 67 58 55 51 58 80 84 86 86 65 42 33 31 32 38 40 34 28 27
96 99 100 100 99 89 90 92 99 99 96 81 69 72 86 97 93 98 81 66 51 51 45 42 68 70 73 68 78 72 83 70 66 81 70 65 41 33 30 31 32 34 31 30 28
99 96 99 98 95 98 82 85 83 91 97 92 94 77 92 99 100 100 96 67 58 61 62 65 76 74 74 69 62 71 80 77 63 61 58 43 45 36 34 33 30 27 30 31 29
99 98 100 99 97 99 98 99 93 84 97 95 97 84 86 94 87 99 94 93 64 63 81 81 88 68 70 64 58 60 64 69 51 54 58 51 52 46 32 27 28 23 24 25 24
99 99 99 93 99 98 93 92 95 99 86 78 83 90 96 84 81 95 98 96 88 84 93 81 83 81 86 65 59 66 68 69 55 59 55 58 40 49 38 34 31 26 24 24 25

GFSSW_850_rhum_198.txt.gz
RH
63 55 46 47 43 43 41 36 31 28 27 29 32 41 63 99 98 98 60 51 70 88 89 86 68 66 63 63 62 63 82 89 71 67 53 41 42 38 36 37 36 34 34 34 48
74 76 68 53 44 42 46 44 36 31 28 28 37 39 72 98 98 92 50 56 80 90 90 87 72 66 63 64 62 71 90 80 62 52 48 43 41 34 34 34 34 34 33 41 46
79 78 77 77 70 49 42 48 44 36 32 30 40 46 75 90 88 52 53 66 83 85 84 74 75 66 67 68 66 72 85 70 51 45 45 43 44 40 37 38 34 35 35 45 45
84 81 79 80 79 76 59 44 46 41 37 34 46 54 92 87 64 66 65 70 79 77 84 76 73 65 75 79 67 72 67 56 48 48 43 45 41 41 36 37 34 30 32 38 41
88 90 87 82 84 81 80 59 46 44 41 36 52 70 86 93 64 54 72 81 82 62 72 76 67 66 76 74 68 69 59 60 51 48 44 42 42 44 40 36 31 32 35 35 36
80 79 83 81 81 81 80 81 62 48 46 43 50 92 94 96 42 56 72 72 64 68 70 70 63 60 62 67 72 64 61 52 52 50 47 47 47 44 40 38 31 34 34 34 34
96 88 82 83 81 86 90 84 76 65 55 52 55 92 99 71 47 61 70 61 59 65 66 65 62 58 55 52 55 52 61 45 56 53 50 47 55 54 41 40 34 36 34 34 34
91 89 88 85 86 86 92 90 90 79 76 60 63 100 91 48 51 58 64 65 63 59 55 60 60 52 46 45 40 48 53 70 52 60 47 48 73 31 37 40 37 38 36 34 34
95 84 73 62 72 78 83 97 90 90 82 61 82 99 88 60 65 54 64 57 57 55 50 48 50 44 41 48 55 50 85 72 60 59 40 49 59 28 30 41 39 38 40 35 34
97 98 90 74 64 70 85 80 96 96 80 74 95 96 65 61 53 56 69 53 46 51 45 46 45 52 51 57 88 59 62 50 68 51 44 48 53 39 30 39 37 38 40 42 36
77 76 80 94 70 60 78 82 86 94 98 78 82 72 55 61 61 70 62 45 44 44 59 48 65 77 64 53 38 44 45 42 42 44 45 50 47 43 36 41 40 39 41 42 41
78 68 63 67 96 81 70 98 84 73 78 71 68 88 64 65 63 66 63 44 48 60 53 60 72 60 56 49 44 40 40 38 30 37 50 50 53 45 40 36 38 36 38 39 39
79 77 81 77 78 98 87 61 72 88 91 68 60 65 66 62 57 60 66 47 54 61 64 66 49 48 48 53 55 44 42 38 33 31 39 36 42 37 32 37 30 35 32 34 35
63 68 66 86 97 77 93 66 60 97 100 78 64 60 59 64 68 52 62 45 52 63 63 58 44 45 53 54 52 66 39 33 33 36 45 35 51 34 35 35 40 36 37 32 31
71 68 69 77 93 96 89 86 86 89 96 50 56 43 54 58 50 54 54 43 57 60 57 54 56 54 54 46 42 49 39 38 36 42 38 40 49 38 31 34 36 40 35 36 27
70 72 77 83 96 90 98 94 98 98 92 49 56 65 79 62 44 53 53 42 42 53 45 47 36 42 44 40 37 40 43 49 53 49 71 47 44 40 36 32 28 34 31 31 34
76 76 83 90 97 88 100 100 98 94 46 54 67 67 72 69 55 58 61 52 55 60 62 39 38 33 34 42 34 36 45 80 71 77 74 48 47 36 28 30 29 35 32 30 30
80 82 82 83 90 100 100 100 96 75 65 55 56 70 74 59 55 59 66 71 50 51 64 65 66 42 36 39 44 42 46 73 61 79 59 50 54 35 31 25 25 28 28 28 28
84 81 86 77 88 98 100 97 96 87 51 68 67 85 85 67 61 54 73 68 53 50 58 73 54 37 35 37 32 43 53 48 69 64 81 58 47 34 31 32 38 39 34 31 28
85 94 96 67 78 100 99 95 94 70 79 60 67 74 92 85 90 82 76 66 59 47 48 53 67 41 36 33 36 40 45 55 84 64 64 51 55 39 32 34 45 50 45 36 32
89 98 75 75 99 100 97 95 90 80 74 83 68 84 74 88 87 90 87 65 49 52 52 53 62 52 40 45 52 52 51 68 69 84 69 67 44 43 33 32 46 49 40 36 34
99 99 81 90 99 100 96 90 90 76 73 83 85 82 79 90 95 95 92 78 58 45 56 55 77 75 55 48 44 45 63 68 77 63 95 86 47 33 31 32 43 46 37 34 31
99 93 78 76 98 96 95 87 79 92 84 92 80 64 84 89 96 91 90 65 72 71 64 66 90 89 65 56 56 51 61 78 84 86 87 67 39 34 31 34 40 43 36 36 34
96 98 97 99 98 97 95 88 97 84 86 89 78 70 82 100 84 93 87 76 72 78 59 54 78 74 65 70 75 66 81 67 64 78 71 68 41 32 30 33 46 40 34 34 34
90 90 98 99 96 96 96 96 94 97 84 94 94 84 84 97 93 98 95 98 98 82 65 85 95 72 72 61 62 70 71 77 66 58 55 39 44 34 33 34 37 36 36 34 32
100 100 99 92 94 99 90 95 82 77 88 92 95 98 89 91 85 96 94 99 94 100 97 86 86 69 70 60 63 57 59 67 55 55 57 48 50 41 32 28 30 33 35 34 31
99 99 99 88 99 98 96 95 96 85 83 71 85 85 100 88 89 93 86 98 99 97 98 97 91 76 96 68 61 68 66 67 54 51 45 59 41 48 37 34 32 29 31 31 30

GFSSW_850_rhum_201.txt.gz
RH
79 89 92 86 73 59 46 46 42 38 32 30 30 37 42 98 90 90 68 50 70 85 86 89 84 70 67 68 68 66 74 79 69 64 51 42 41 39 37 37 35 33 36 37 53
90 87 82 82 86 91 80 62 46 43 38 32 31 45 58 87 84 61 49 50 78 90 88 88 76 70 65 66 65 68 81 72 60 56 49 44 41 36 36 36 35 36 35 43 49
78 90 90 90 85 84 93 98 75 47 44 37 32 48 96 86 77 42 51 54 82 98 92 88 77 68 68 70 69 72 78 68 59 47 45 45 45 38 38 40 35 35 35 52 48
82 76 90 94 85 85 80 91 97 67 48 44 36 55 98 89 51 64 68 64 92 90 87 75 77 68 76 80 70 75 70 62 50 49 47 48 42 44 37 37 33 32 31 45 46
97 63 75 91 88 86 89 82 91 95 66 52 45 61 95 90 55 46 63 69 93 80 85 75 74 70 78 76 72 73 62 63 50 48 45 43 44 43 42 36 33 32 36 42 43
86 96 75 59 86 79 81 89 84 92 90 66 59 68 99 94 42 53 71 82 79 79 68 78 74 65 67 70 71 66 64 55 56 55 49 48 48 44 43 39 34 33 35 41 40
98 84 84 79 74 79 76 75 88 88 95 83 77 74 99 80 51 55 70 71 77 62 70 74 64 63 61 61 62 59 70 49 57 56 51 49 56 54 42 41 34 34 36 41 41
86 94 93 95 81 67 58 78 82 91 89 92 84 73 96 58 60 63 74 73 68 67 67 67 66 58 52 46 43 53 59 76 57 59 52 51 68 41 46 40 37 35 36 39 39
82 75 89 97 94 88 71 60 72 79 96 97 76 80 83 67 60 56 70 70 66 64 54 57 55 50 43 53 62 56 85 78 67 60 47 59 68 40 33 45 43 40 36 37 38
82 79 80 77 79 86 86 74 59 74 85 94 86 94 71 66 60 61 66 63 57 56 48 51 47 54 50 58 84 76 73 54 74 52 50 57 58 44 31 42 46 43 41 38 37
81 76 70 71 69 64 84 92 76 89 85 80 88 74 64 66 64 69 74 52 48 48 60 51 65 78 65 58 42 54 65 60 42 40 54 59 56 48 45 38 43 46 45 44 36
76 68 72 81 80 87 87 100 71 88 91 83 78 84 72 69 61 72 72 48 48 59 56 62 74 64 63 51 46 44 44 40 33 42 55 56 52 46 41 38 36 38 43 43 43
72 70 58 65 79 74 94 91 92 84 85 74 74 90 84 74 83 63 51 47 54 61 59 67 55 53 61 61 58 52 52 40 34 33 48 41 41 38 36 38 34 31 32 38 39
75 65 65 69 81 80 90 72 78 92 98 68 83 72 68 68 81 61 62 52 54 59 59 57 46 56 61 66 62 79 40 35 34 35 43 37 47 33 33 34 40 38 36 36 39
81 72 75 79 96 92 84 80 100 98 96 48 59 51 55 62 55 67 57 52 60 61 55 56 58 52 62 56 56 67 44 40 37 40 38 40 43 33 32 31 30 37 41 35 35
82 75 81 80 79 80 88 87 99 98 95 59 63 77 85 68 53 59 59 54 46 58 50 46 43 44 42 44 48 41 41 45 49 43 65 44 38 34 30 28 28 32 36 37 34
83 79 81 84 92 86 90 100 98 96 44 63 74 77 81 84 63 64 67 58 60 69 70 46 41 34 36 45 38 37 42 75 73 76 75 48 47 29 28 27 26 29 33 34 34
79 76 78 81 76 84 99 100 96 88 62 52 66 84 83 73 62 66 75 74 55 53 67 64 66 42 36 43 44 44 47 72 70 75 56 50 49 32 30 29 25 28 29 30 35
79 76 80 60 75 92 100 96 94 88 85 72 76 94 97 70 66 67 83 73 60 52 62 74 58 38 36 36 32 42 52 45 67 65 68 54 44 33 33 28 32 36 36 34 35
81 88 73 74 89 99 99 92 95 83 69 86 75 73 96 94 88 80 86 65 65 49 47 53 68 42 38 33 36 40 43 53 79 72 68 52 50 34 30 34 35 39 42 37 36
86 92 70 85 98 99 98 93 92 80 74 97 91 79 79 93 85 87 80 66 58 59 47 53 61 52 41 46 49 50 50 66 67 72 62 51 35 38 35 31 32 37 38 35 32
99 96 86 93 96 100 95 91 70 81 75 81 98 94 76 89 97 96 90 73 60 54 58 75 86 69 56 49 46 45 62 64 71 68 84 67 42 33 33 33 36 38 36 34 30
99 98 88 97 95 98 92 91 76 89 84 97 95 86 81 90 94 88 87 71 81 71 88 89 97 91 64 56 54 52 59 72 80 76 82 56 38 34 30 34 39 40 39 36 34
96 98 87 98 98 99 97 92 94 83 84 82 89 72 83 98 89 96 92 78 84 86 78 79 95 82 71 69 75 67 82 63 62 66 66 61 38 29 27 31 43 41 38 37 35
86 89 85 97 96 98 98 96 93 88 83 84 86 84 86 98 99 98 84 92 92 82 93 99 96 82 68 57 61 66 65 74 62 49 46 38 46 33 30 32 40 37 38 39 37
97 98 99 99 80 95 96 98 83 75 86 84 94 80 96 96 80 87 91 94 90 100 100 100 96 70 66 60 56 52 56 56 48 55 48 45 44 35 33 29 37 38 38 38 37
96 98 99 89 91 98 97 97 97 80 73 69 85 90 100 89 97 88 78 82 97 93 99 98 96 81 95 71 64 74 58 56 49 52 48 51 36 47 37 33 34 36 35 34 33

GFSSW_850_rhum_204.txt.gz
RH
82 86 93 91 84 79 80 89 80 60 48 43 37 34 43 70 95 98 95 66 47 75 86 90 91 80 72 65 72 68 47 40 37 38 29 34 32 36 35 32 31 32 34 45 75
63 81 88 89 91 94 89 80 86 93 59 46 43 37 76 87 78 84 45 52 72 87 95 90 84 76 62 60 64 54 51 41 37 34 35 33 31 32 31 31 30 33 37 60 63
60 54 64 95 95 86 93 92 87 83 87 56 47 42 73 95 80 60 58 57 84 97 96 86 78 68 60 61 58 55 55 40 45 42 40 36 35 32 30 33 28 30 42 62 63
92 95 73 46 50 92 90 88 91 88 82 86 52 48 69 83 45 56 70 47 82 98 89 85 76 66 58 62 56 63 51 51 47 46 41 38 37 34 31 30 32 31 41 56 57
91 97 98 91 81 55 57 82 88 91 88 87 70 54 68 96 72 44 65 75 94 99 85 77 73 61 61 54 61 62 52 55 50 47 42 42 37 34 36 34 34 34 46 52 51
92 91 90 91 94 88 64 54 67 79 91 92 88 80 82 85 49 52 90 99 99 100 88 76 67 63 54 54 55 54 53 50 53 48 45 43 39 41 36 37 35 38 44 47 47
82 78 78 84 91 94 91 71 52 73 83 93 90 90 98 76 49 53 99 98 99 94 79 74 69 64 55 54 58 52 58 56 50 49 47 46 48 46 38 40 35 36 40 44 44
87 82 81 74 72 86 97 93 76 50 70 89 96 94 94 64 54 50 69 99 97 91 68 71 66 62 56 49 48 56 55 58 45 51 48 47 52 36 39 39 36 34 36 43 44
80 75 75 73 70 77 76 83 88 73 52 74 98 96 75 70 71 44 60 90 94 74 70 64 64 57 50 50 52 54 49 52 48 47 50 51 51 37 39 42 38 34 33 39 42
86 69 75 64 72 73 80 79 72 81 69 78 92 99 79 78 71 64 63 82 68 63 52 53 52 61 52 58 61 50 60 56 52 45 54 56 55 36 28 38 39 37 34 34 38
81 80 66 61 67 74 79 97 76 80 97 56 75 63 65 74 67 70 70 69 57 57 60 50 63 76 60 52 44 44 49 53 44 42 48 53 47 40 37 27 30 33 37 34 35
92 82 67 62 75 71 74 94 96 94 97 81 62 78 73 68 63 68 69 58 54 63 52 57 64 45 46 48 52 47 49 46 33 32 40 36 39 33 34 37 31 24 31 36 35
88 80 77 70 73 75 77 78 84 92 98 79 64 71 65 83 71 60 65 57 51 59 58 58 48 42 54 57 60 54 46 42 30 28 32 36 28 26 23 26 33 34 26 31 37
81 75 75 74 80 93 96 77 87 98 99 78 54 58 68 77 68 63 64 55 49 56 53 54 40 46 58 58 53 60 45 47 44 44 42 28 30 23 20 26 27 28 29 27 34
83 84 81 81 93 99 90 78 94 90 94 36 46 53 51 60 39 58 60 56 57 51 48 51 48 49 52 54 51 52 44 50 48 48 38 34 35 22 23 21 23 26 26 27 32
79 76 80 79 83 78 79 90 97 96 92 55 51 56 61 51 44 62 59 56 54 48 47 40 40 38 39 40 47 40 44 42 41 45 68 43 32 26 20 18 15 17 25 28 30
67 72 77 81 91 79 89 96 100 92 62 61 61 61 53 59 61 52 67 72 76 90 79 51 41 37 34 42 45 43 46 66 72 74 69 35 36 26 18 18 17 17 20 27 30
72 75 72 70 74 85 98 100 93 70 58 50 56 62 64 60 59 58 62 77 56 49 50 68 64 39 34 33 42 48 40 54 57 65 40 38 37 24 19 20 20 22 23 24 31
75 73 70 76 77 85 100 96 84 61 73 65 59 57 63 61 61 68 57 61 60 47 51 65 48 34 33 31 32 40 46 34 45 43 42 34 29 23 21 22 22 22 27 26 32
81 77 82 79 85 91 100 76 75 87 83 86 89 61 43 61 65 63 57 42 46 45 38 44 62 39 36 30 33 32 27 44 63 71 50 36 33 22 22 24 22 23 26 29 34
88 93 79 86 91 97 95 81 80 62 67 72 68 74 60 58 65 77 65 55 42 48 42 47 51 45 37 39 39 41 40 42 50 56 38 30 24 22 26 24 22 20 26 30 35
94 90 86 98 90 99 86 80 63 55 60 62 72 62 61 76 94 68 77 50 48 49 59 70 91 58 45 42 40 31 50 49 56 69 65 45 25 25 24 23 23 21 28 32 36
94 99 95 97 90 85 69 75 67 60 58 72 81 83 70 61 83 75 62 58 57 52 58 86 97 92 58 46 46 45 38 53 70 49 55 42 25 25 23 25 26 26 30 35 38
98 96 84 88 97 95 82 74 80 66 67 71 77 85 98 88 73 85 75 74 67 59 59 60 84 73 67 62 74 65 65 48 49 53 35 35 25 23 23 25 29 30 32 35 38
88 87 84 87 82 87 87 87 72 76 72 71 77 72 79 97 95 91 72 86 82 77 72 92 90 75 58 44 50 52 62 69 64 45 46 29 29 20 22 22 26 30 34 36 36
99 96 99 89 82 85 94 95 73 63 66 71 87 74 70 84 59 89 91 95 82 94 100 100 86 69 72 51 43 46 42 50 47 36 33 28 28 19 24 22 30 32 35 35 36
94 98 98 78 87 88 96 97 97 98 66 55 64 78 95 76 64 74 71 68 75 97 99 100 95 92 80 58 57 66 42 40 41 34 35 44 30 29 28 24 28 30 34 34 35

GFSSW_850_rhum_207.txt.gz
RH
38 54 67 68 84 90 95 94 90 75 76 85 58 48 42 61 87 96 87 76 74 85 88 96 98 81 73 61 59 62 57 49 31 31 24 23 25 28 28 26 27 27 28 41 66
95 95 74 51 45 67 82 88 93 92 83 70 77 51 46 65 88 77 59 68 72 76 96 93 86 75 66 57 60 56 53 40 26 26 28 27 25 29 28 26 27 29 35 53 69
90 96 87 88 79 67 46 77 78 90 93 87 69 76 50 55 82 47 46 66 53 92 92 73 70 69 58 53 52 51 53 33 36 36 34 28 27 28 27 28 26 27 39 61 60
86 90 89 92 91 87 77 60 74 80 91 91 87 75 57 83 47 63 56 64 60 96 92 68 64 64 55 56 49 53 42 39 39 40 38 32 30 30 28 26 27 26 38 57 54
85 80 84 93 93 93 92 85 68 64 78 92 93 85 76 77 67 58 38 51 89 95 84 71 62 58 53 45 46 49 42 42 42 43 40 36 34 31 29 28 30 28 39 50 49
97 92 86 81 78 75 74 90 93 74 50 77 96 97 98 67 53 51 59 93 93 94 78 63 55 51 44 40 44 43 47 42 44 43 40 40 34 36 32 31 31 30 38 45 45
94 92 80 76 75 76 67 68 87 93 76 51 78 99 99 74 64 52 66 93 86 91 80 63 56 55 48 42 41 41 51 44 41 42 42 42 42 41 32 32 31 32 36 40 43
82 82 77 76 61 70 76 72 72 81 84 70 50 96 99 77 71 65 69 96 91 89 78 67 64 56 48 42 42 47 44 51 38 40 41 45 50 33 34 34 32 31 32 38 40
85 65 68 68 64 73 74 67 68 72 66 74 88 86 80 67 74 64 62 80 88 93 77 61 64 57 56 52 47 46 48 47 36 38 41 47 45 31 31 32 33 30 30 35 38
80 82 82 76 64 75 75 63 72 64 73 79 84 75 68 68 64 71 69 73 84 80 64 57 64 58 54 49 57 41 43 31 36 39 43 50 48 34 30 33 35 32 30 32 36
91 77 82 75 72 72 80 83 59 59 87 58 52 60 44 57 70 72 64 76 69 67 60 54 72 82 55 46 36 35 32 36 32 34 44 47 45 40 32 27 31 30 30 29 34
78 69 71 72 68 71 85 87 67 79 84 68 76 62 52 56 59 60 68 63 59 66 53 58 71 49 46 42 46 44 44 39 32 32 42 39 39 34 31 31 28 28 30 30 30
82 77 76 75 74 80 80 75 75 79 98 83 61 59 56 65 55 55 63 56 51 60 60 64 42 39 44 48 50 47 49 38 35 26 27 28 30 27 24 27 30 29 23 29 31
78 77 75 79 84 93 82 87 94 88 99 57 51 53 48 50 56 59 59 53 49 56 50 57 36 41 46 48 44 52 38 34 35 38 37 25 29 16 17 21 24 29 29 21 28
73 78 76 78 98 94 85 84 88 83 92 62 35 43 39 46 36 43 63 60 60 50 53 68 44 46 48 46 41 47 34 41 42 47 40 36 37 22 16 20 20 20 26 29 23
65 75 69 93 96 94 92 93 93 96 81 69 47 48 43 43 43 25 56 60 59 47 42 41 35 39 40 37 40 39 46 44 47 46 65 43 34 23 20 18 16 17 20 25 24
59 62 68 92 89 97 83 97 96 85 45 58 46 43 43 42 51 35 60 74 90 99 89 53 42 32 33 42 40 45 52 72 75 75 69 30 39 25 16 15 13 14 18 21 23
57 62 93 95 96 85 96 100 89 49 47 56 39 46 56 46 48 43 54 75 62 59 66 83 78 42 33 37 44 52 46 54 57 62 44 31 41 28 18 15 16 16 16 20 23
59 86 97 99 99 82 97 94 62 52 63 62 51 52 66 59 53 48 53 61 61 48 58 68 46 33 33 30 32 48 54 36 41 31 36 32 25 19 19 19 19 18 20 18 24
88 91 87 76 85 98 96 74 60 49 72 79 66 62 51 53 62 62 51 39 49 44 35 40 58 36 35 30 29 34 33 54 58 78 45 26 26 20 23 22 20 20 22 20 24
95 79 91 74 87 92 88 70 61 52 52 82 71 76 92 86 75 66 53 34 31 42 40 48 45 44 38 42 40 40 38 35 44 43 44 30 24 20 22 20 20 19 22 22 27
84 81 98 79 89 96 79 67 58 46 46 53 57 54 49 63 83 68 68 46 33 33 54 52 76 54 46 32 33 31 41 40 56 71 54 48 30 20 21 21 20 17 22 26 29
94 89 96 94 84 88 64 57 53 56 49 47 54 62 58 55 84 92 75 71 54 41 47 57 93 72 49 43 39 44 35 58 58 47 51 41 27 20 20 22 21 21 25 29 31
97 88 91 81 91 92 76 62 69 49 52 48 51 54 85 71 56 68 64 71 56 51 56 58 81 71 54 67 76 66 60 39 47 58 40 36 26 22 23 24 23 24 28 31 33
98 82 76 85 76 81 82 80 74 64 53 58 60 60 59 88 97 79 63 78 67 68 61 84 89 67 52 42 54 55 62 64 64 51 49 30 26 20 20 21 22 25 27 32 34
92 85 90 81 75 88 87 94 84 72 61 59 78 57 69 84 78 80 85 88 87 86 100 100 78 58 57 49 49 47 43 50 55 41 38 29 27 17 18 18 23 26 28 30 33
98 89 99 72 81 86 95 98 90 99 74 50 49 90 81 64 55 58 60 58 61 88 96 100 95 79 69 43 53 64 42 37 44 41 36 43 29 19 23 21 25 25 29 29 32

GFSSW_850_rhum_210.txt.gz
RH
95 97 88 90 69 43 55 74 86 94 94 90 85 72 65 49 47 71 95 55 70 74 86 90 93 92 88 76 63 60 70 72 54 44 32 22 25 24 26 26 25 27 37 46 70
81 88 91 89 89 86 82 54 51 74 86 90 90 80 70 64 46 73 38 60 78 79 84 98 92 90 81 72 62 62 73 60 38 34 28 26 26 27 28 27 27 30 49 64 70
86 80 82 89 83 88 96 93 75 57 58 85 90 92 77 69 84 52 57 44 72 65 77 90 86 79 70 62 58 58 68 48 37 36 34 33 28 27 30 35 27 32 62 67 66
92 89 88 83 84 81 91 85 88 83 70 52 93 93 88 79 64 53 45 60 66 60 84 94 79 76 66 65 54 60 53 50 45 40 38 37 29 29 29 29 26 28 55 65 64
90 92 93 92 80 80 78 75 70 74 90 74 53 95 98 94 75 38 54 45 56 62 98 94 72 73 68 55 49 57 48 42 44 42 42 37 36 32 30 28 28 30 53 60 59
96 91 81 80 72 75 78 72 79 80 85 92 74 65 99 95 66 54 57 62 52 80 87 77 74 70 58 50 49 42 47 45 41 43 41 42 39 35 32 30 29 34 52 55 54
94 80 85 84 67 78 75 76 74 69 72 77 80 83 98 88 69 60 61 88 71 86 92 70 63 54 53 50 41 40 48 46 46 44 46 41 50 46 33 31 30 33 44 51 49
82 82 74 80 81 81 76 79 66 59 55 61 66 90 95 73 71 67 68 88 92 93 90 69 68 64 55 50 42 45 49 66 47 44 43 47 66 44 34 34 31 30 35 44 46
85 89 85 75 89 78 68 77 64 48 44 52 84 90 82 51 40 68 69 62 91 90 88 84 77 66 57 70 66 48 68 64 51 40 44 52 58 43 34 35 34 31 32 39 43
80 74 78 78 81 73 79 73 47 42 64 92 92 86 71 54 53 71 66 59 62 92 82 61 62 68 67 79 86 62 60 50 51 40 46 53 59 45 32 35 35 33 30 36 39
88 74 80 86 79 71 84 84 62 49 66 75 73 73 43 48 55 58 65 61 59 86 85 60 81 84 67 67 58 43 41 46 35 33 51 55 56 51 39 30 37 35 31 32 36
91 78 77 80 74 72 70 98 77 95 91 67 63 55 64 78 73 67 64 64 66 80 67 67 87 61 49 54 58 48 48 48 35 41 47 50 52 43 41 37 30 35 33 30 35
78 76 75 75 67 64 87 83 88 82 97 74 58 59 53 53 62 82 61 61 62 73 70 71 58 49 51 53 53 52 56 52 44 36 32 40 46 38 34 35 32 29 31 30 33
85 85 70 71 75 91 82 92 88 77 98 55 57 54 51 46 55 60 79 59 62 63 51 62 44 53 52 57 53 65 44 44 40 35 50 35 61 29 29 31 34 33 28 29 32
80 70 59 69 92 97 89 87 87 82 95 36 56 53 41 45 43 73 75 87 62 60 57 63 57 50 56 51 46 56 41 44 46 45 54 48 54 39 23 30 32 34 30 24 30
66 56 58 76 86 94 90 88 85 96 92 40 47 66 48 41 43 35 84 93 61 63 48 54 46 50 44 38 41 39 50 47 47 56 84 60 54 48 29 25 24 26 31 27 23
67 52 73 90 94 91 77 84 96 96 32 47 53 58 48 53 46 44 48 86 100 98 91 66 72 41 40 47 45 55 62 98 98 97 91 42 56 43 23 17 20 22 24 32 25
69 60 88 91 94 88 82 91 98 52 40 46 57 54 62 52 56 59 58 69 68 79 75 93 97 58 37 45 51 69 73 88 78 92 71 34 54 45 26 22 15 15 18 24 30
65 79 79 88 87 90 90 87 81 56 53 60 50 55 59 64 78 58 56 97 70 64 77 77 60 42 38 37 40 68 82 45 58 44 59 53 33 23 20 20 20 19 18 22 28
62 83 84 76 81 87 97 77 66 48 49 62 81 59 76 89 94 72 58 73 91 54 50 97 78 44 39 34 33 52 44 67 86 94 60 48 36 35 26 27 24 26 23 20 24
82 70 96 67 81 90 94 81 60 44 45 79 93 72 68 87 90 87 63 48 40 50 49 66 80 90 41 48 48 49 54 54 67 75 82 59 42 24 31 27 26 26 22 20 26
80 85 90 80 94 91 91 75 52 47 47 58 59 60 56 55 87 86 74 57 60 55 58 56 79 96 70 37 34 37 49 55 83 81 86 80 64 23 24 23 23 24 23 22 27
86 82 82 88 90 89 68 57 50 55 53 58 53 54 58 64 92 71 71 76 60 62 56 62 93 96 66 50 41 47 42 60 63 65 74 72 52 22 23 24 25 29 25 27 29
83 87 80 71 91 91 84 71 72 49 48 45 49 47 63 78 66 82 94 71 64 73 71 58 93 74 83 72 74 63 65 47 63 63 60 59 39 27 30 28 30 29 28 30 31
80 83 75 86 87 84 88 94 87 91 55 56 60 55 63 96 88 90 70 77 65 84 90 94 92 76 64 52 60 64 69 71 72 60 59 44 36 27 31 31 29 29 30 32 33
89 93 85 85 66 82 95 88 78 72 76 65 80 60 68 89 72 96 92 88 85 95 100 100 92 77 76 58 55 69 55 62 55 57 52 44 38 24 20 24 27 28 32 34 35
85 85 98 72 87 92 89 86 83 81 89 74 78 68 84 84 73 69 77 72 65 95 99 98 92 89 84 55 57 73 57 52 55 47 47 58 42 30 24 28 30 28 31 33 36

GFSSW_850_rhum_216.txt.gz
RH
92 97 95 98 97 89 85 82 86 83 91 90 65 58 89 91 86 90 71 21 26 47 62 72 78 89 98 97 86 76 86 93 71 59 50 35 30 28 27 37 33 37 44 50 97
87 93 92 95 92 86 81 82 84 80 81 88 90 88 55 87 88 80 29 35 25 39 85 84 75 93 97 99 88 75 85 79 59 50 43 37 32 29 31 38 56 45 47 68 97
94 98 97 94 87 84 81 78 70 80 77 81 77 76 90 71 92 59 78 54 45 61 94 88 84 95 98 91 83 77 79 59 55 46 41 37 34 31 35 35 54 69 82 90 93
98 93 95 84 76 83 84 79 76 93 81 89 74 74 77 84 88 47 56 54 83 82 95 91 100 99 92 89 78 76 65 61 54 52 46 42 39 33 31 30 32 40 49 83 93
87 89 83 84 85 82 79 82 83 92 90 94 86 79 84 99 85 55 64 60 83 84 91 85 96 95 83 77 74 81 68 58 58 56 54 46 43 40 34 30 32 50 66 75 93
88 86 83 82 85 86 92 94 91 92 91 91 91 88 93 97 74 54 38 53 63 78 86 88 80 93 75 67 72 66 67 62 57 56 50 47 44 39 36 36 43 58 77 77 81
94 92 79 94 93 92 91 93 92 89 93 95 94 88 100 91 75 65 85 54 70 90 75 84 74 87 85 79 60 55 76 65 58 58 51 45 54 52 38 42 53 62 69 77 75
90 93 88 94 89 95 94 94 91 72 57 93 99 91 96 78 59 48 42 62 83 88 97 69 81 94 91 74 63 72 72 87 63 60 51 49 75 54 40 48 71 73 73 74 73
77 93 75 85 91 94 94 90 41 41 47 69 98 99 80 74 78 38 44 54 66 74 87 96 94 89 88 89 89 72 86 86 69 59 56 56 71 55 43 42 66 74 73 70 69
79 87 88 76 77 60 80 60 49 52 57 68 89 96 72 68 74 71 70 70 64 59 84 100 98 97 98 97 96 88 84 75 76 61 60 67 68 47 47 48 46 67 70 69 67
83 87 76 71 64 52 83 65 76 71 54 71 71 74 69 64 72 69 56 68 85 86 94 88 94 94 80 78 68 62 67 67 68 51 61 64 65 57 46 47 50 50 66 66 64
89 74 71 64 55 53 74 85 98 96 97 75 71 71 50 64 66 51 54 70 78 92 84 92 93 69 66 73 78 67 67 64 50 45 58 61 65 56 51 54 47 44 52 61 57
80 76 77 69 47 64 74 94 92 92 98 76 65 73 58 61 71 59 54 75 89 79 76 88 71 67 72 73 79 75 67 65 54 38 40 63 71 70 59 52 47 42 39 47 50
76 75 68 70 56 68 78 89 86 90 99 64 61 68 58 62 66 57 60 74 97 83 74 88 64 70 75 74 76 96 71 59 54 59 82 51 91 64 61 56 56 49 41 40 45
72 71 70 74 84 89 89 88 82 92 98 31 54 50 48 65 60 58 66 87 99 91 72 77 70 86 90 90 85 91 58 59 54 57 56 52 61 51 44 58 49 50 46 39 37
74 71 70 77 80 88 78 78 83 88 88 54 44 45 46 63 90 68 84 84 100 100 74 71 66 79 69 76 73 62 68 82 84 92 98 71 58 64 51 40 37 37 42 41 37
63 60 79 78 82 74 76 74 88 91 50 64 61 52 60 90 83 60 98 100 95 98 99 96 86 66 61 73 72 75 72 98 98 98 93 70 70 54 46 43 34 31 30 41 40
57 64 75 77 77 70 79 79 92 64 70 55 57 64 84 80 80 88 67 98 96 96 98 94 98 81 72 70 73 89 75 94 90 97 85 68 82 58 40 34 32 27 24 41 41
68 72 74 79 68 74 76 94 82 73 62 68 69 80 76 61 84 100 73 87 98 100 98 97 81 75 60 56 60 88 85 66 69 66 82 70 47 35 31 32 38 30 31 42 39
71 76 81 79 71 81 86 90 83 62 62 68 95 83 94 90 94 94 90 71 81 85 81 99 97 76 73 65 67 73 59 92 96 94 89 62 53 47 31 30 30 27 35 39 37
74 70 77 64 75 74 95 92 75 60 60 73 94 96 86 93 80 96 98 75 69 72 87 100 86 93 77 96 73 87 83 76 83 84 79 64 59 36 31 30 31 28 23 39 36
82 87 65 63 78 99 97 75 68 63 56 63 76 86 81 68 90 97 98 99 69 68 95 98 95 97 96 74 63 50 74 73 85 92 89 79 59 26 30 30 28 28 25 31 37
76 75 65 62 98 87 78 81 71 69 70 68 66 60 61 70 92 80 80 70 74 93 76 92 98 97 96 85 66 71 71 76 80 75 77 70 52 27 33 37 33 28 26 33 41
71 93 66 68 85 94 97 86 91 65 78 70 70 64 82 86 74 86 91 79 74 86 73 70 96 85 82 82 80 76 70 68 68 80 73 66 41 33 30 35 36 34 38 37 46
72 90 84 99 87 92 94 96 95 84 78 80 79 86 95 99 94 94 92 90 80 91 96 88 91 76 68 63 59 68 72 78 75 62 68 52 52 35 28 28 31 33 42 50 52
76 87 83 88 88 94 96 92 91 83 88 87 95 91 91 99 96 98 100 99 100 92 100 100 96 66 72 63 62 56 58 62 56 56 52 49 49 28 27 29 32 31 40 54 54
83 84 96 82 98 95 95 95 86 87 74 85 78 97 95 86 91 93 90 93 99 100 90 99 98 87 88 68 66 74 68 61 60 56 54 63 42 33 30 30 32 31 34 46 50